Regional Weather Roundup
Issued by NWS Newport/Morehead, NC

Current Version | Previous Version | Text Only | Print | Product List | Glossary Off
Versions: 1 2 3 4 5 6 7 8 9 10 11 12 13 14 15 16 17 18 19 20 21 22 23 24 25 26 27 28 29 30 31 32 33 34 35 36 37 38 39 40 41 42 43 44 45 46 47 48 49 50
000 ASUS42 KMHX 270110 RWRMHX WEATHER ROUNDUP FOR EASTERN NORTH CAROLINA NATIONAL WEATHER SERVICE NEWPORT/MOREHEAD CITY NC 800 PM EST FRI DEC 26 2014 NOTE: "FAIR" INDICATES FEW OR NO CLOUDS BELOW 12,000 FEET WITH NO SIGNIFICANT WEATHER AND/OR OBSTRUCTIONS TO VISIBILITY NCZ015>017-031-032-045>047-102-103-270200- NORTH COAST CITY SKY/WX TMP DP RH WIND PRES REMARKS EDENTON N/A 39 36 91 CALM 30.32R ELIZABETH CITY CLEAR 45 37 73 CALM 30.32R KITTY HAWK CLEAR 45 39 78 CALM 30.30S MANTEO CLEAR 39 37 93 CALM 30.32S $$ NCZ045>047-081-094-103-104-270200- CENTRAL COAST CITY SKY/WX TMP DP RH WIND PRES REMARKS FRISCO CLEAR 40 38 93 CALM 30.32S SWANQUARTER N/A 43 N/A N/A CALM 30.30R $$ NCZ095-097-098-100-101-270200- SOUTHERN COAST CITY SKY/WX TMP DP RH WIND PRES REMARKS BEAUFORT CLEAR 43 39 86 CALM 30.33R CEDAR ISLAND N/A 45 N/A N/A SE1 30.36S JACKSONVILLE CLEAR 43 40 89 CALM 30.31S PINEY ISLAND CLEAR 49 41 74 S5 30.32R WILMINGTON CLEAR 43 41 93 CALM 30.31S $$ NCZ011>013-027>030-043-044-078>080-089-090>093-098-270200- COASTAL PLAIN CITY SKY/WX TMP DP RH WIND PRES REMARKS AHOSKIE PTCLDY 36 34 95 CALM 30.32R CLINTON CLEAR 41 40 95 CALM 30.34R ELIZABETHTOWN CLEAR 43 38 83 CALM 30.32R GOLDSBORO CLEAR 42 42 97 CALM 30.31R GREENVILLE CLEAR 39 37 93 CALM 30.32S HAVELOCK CLEAR 41 38 89 E5 30.33R KENANSVILLE CLEAR 38 37 97 CALM 30.33S KINSTON CLEAR 39 37 93 CALM 30.33R NEW BERN CLEAR 41 37 86 CALM 30.33R RICHLANDS CLEAR 39 36 87 CALM 30.33R ROCKY MOUNT CLEAR 39 37 92 CALM 30.31S WASHINGTON CLEAR 40 37 90 CALM 30.32S WHITEVILLE CLEAR 43 39 86 CALM 30.31S $$ AMZ130-135-150-152-154-156-158-170-250-252-270-ANZ085-086-088-633-658-670-270200- MARINE OBSERVATIONS STATION/POSITION TIME TEMP WIND PRES WAVE SWELL AIR SEA DIR/SP/G HT/PER HT/PER (UTC) (F) (DEG/KT/KT) (MB) (FT/S) (FT/S) CHESAPEAKE LIGHT 0000 48 90/ 5/ 5 1027.3 64 E VA BEACH 0100 50 52 40/ 2/ 4 1026.3 2/ 8 2/ 8 DUCK 0100 51 51 250/ 4/ 4 1025.8 2 E DUCK 0100 50 N/A 2/13 2/13 10 NE DUCK 0100 51 N/A 2/13 2/13 OREGON INLET 0100 49 53 40/ 3/ 3 1026.4 13E OREGON INLT 0100 50 N/A 2/13 2/13 HATTERAS CG 0100 51 56 280/ 3/ 5 1026.9 DIAMOND BUOY 0100 55 1026.9 3/ 9 17 S OCRACOKE NOT AVBL CAPE LOOKOUT 0000 55 20/ 5/ 5 1026.3 BEAUFORT LAB 0100 48 55 CALM / 2 1025.9 30 SE NEW RIVER 0100 57 60 30/ 2/ 2 1027.1 2/ 7 2/ 7 5 SE WRIGHTSVLE NOT AVBL 225 S CAPE HAT 0028 67 74 90/ 6/ 8 1025.8 3/ 6 3/ 6 41 SE CHARLESTON 0100 62 72 30/ 10/ 12 1025.7 3/ 7 2/ 7 $$

USA.gov is the U.S. government's official web portal to all federal, state and local government web resources and services.